Regional Weather Roundup
Issued by NWS

Home | Current Version | Previous Version | Graphics & Text | Print | Product List | Glossary Off
Versions: 1 2 3 4 5 6 7 8 9 10 11 12 13 14 15 16 17 18 19 20 21 22 23 24 25 26 27 28 29 30 31 32 33 34 35 36 37 38 39 40 41 42 43 44 45 46 47 48 49 50

000
ASUS43 KDMX 221506
RWRIA

WEATHER ROUNDUP FOR IOWA
NATIONAL WEATHER SERVICE DES MOINES IA
1000 AM CDT TUE AUG 22 2017

NOTE: "FAIR" INDICATES FEW OR NO CLOUDS BELOW 12,000 FEET WITH NO
SIGNIFICANT WEATHER AND/OR OBSTRUCTIONS TO VISIBILITY.

* - THESE STATIONS ARE NOT NWS STATIONS...THUS NOT UNDER NWS
QUALITY CONTROL.  THEY ALSO DO NOT REPORT WEATHER SUCH
AS PRECIPITATION OR FOG.

IAZ001>003-012>014-020>022-031>034-043>046-221600-
   NORTHWEST IOWA

CITY           SKY/WX    TMP DP  RH WIND       PRES   REMARKS
CARROLL *      SUNNY     66  57  72 N12       30.13R
CHEROKEE *     SUNNY     64  55  71 N12       30.16R
DENISON *      SUNNY     66  54  63 N9        30.17R
LE MARS *      SUNNY    104 N/A N/A NW8       30.18R
ORANGE CITY *  SUNNY     64  55  72 N8        30.17R
SHELDON *      SUNNY     64  54  68 NW9       30.15R
SIOUX CITY     SUNNY     66  58  75 NW9       30.17R
SPENCER        SUNNY     65  52  62 NW14      30.14R
STORM LAKE *   SUNNY     64  52  63 N12       30.15R
$$

IAZ055>058-069>071-079>083-090>094-221600-
   SOUTHWEST IOWA

CITY           SKY/WX    TMP DP  RH WIND       PRES   REMARKS
ATLANTIC *     SUNNY     68  55  64 N13       30.14R
AUDUBON *      SUNNY     66  54  63 N13G20    30.14R
CLARINDA *     MOSUNNY   70  66  88 N9        30.15R
COUNCIL BLFS * SUNNY     68  61  77 N10       30.16R
CRESTON *      SUNNY     70  61  73 NW10G18   30.12R
HARLAN  *      SUNNY     66  55  68 N10G16    30.18R
LAMONI         SUNNY     71  62  73 N12       30.09R
RED OAK *      SUNNY     72  61  68 N8G14     30.14S
SHENANDOAH *   SUNNY     70  64  83 MISG      30.14S
$$

IAZ047>049-059>061-072>074-084-221600-
   CENTRAL IOWA

CITY           SKY/WX    TMP DP  RH WIND       PRES   REMARKS
AMES           SUNNY     67  61  81 NW13      30.08R
ANKENY *       SUNNY     68  59  73 NW16      30.08R
BOONE *        SUNNY     66  57  72 NW15      30.09R
CHARITON *     SUNNY     70  63  78 NW12G20   30.07R
DES MOINES     MOSUNNY   69  59  70 NW16      30.07R
GRINNELL*      MOSUNNY   67  61  80 NW10      30.06R
KNOXVILLE *    MOSUNNY   70  61  73 NW14G20   30.05R
MARSHALLTOWN   SUNNY     68  59  73 NW17      30.04R
NEWTON *       MOSUNNY   68  61  77 NW14      30.06R
PELLA *        SUNNY     71  61  71 N10G18    30.06R
PERRY *          N/A     67  60  78 NW10      30.11R
$$

IAZ004>006-015-016-023>025-035-036-221600-
   NORTH CENTRAL IOWA

CITY           SKY/WX    TMP DP  RH WIND       PRES   REMARKS
ALGONA *       SUNNY     64  57  77 NW14      30.11R
CLARION *      SUNNY     64  59  82 NW15      30.09R
ESTHERVILLE    SUNNY     63  54  72 NW13      30.12R
FORT DODGE *   SUNNY     64  54  68 N10G16    30.10R
FOREST CITY *    N/A     63  55  77 N12G18    30.08R
WEBSTER CITY * SUNNY     64  57  77 N10G20    30.08R
IOWA FALLS *     N/A     66  60  80 NW10G18   30.08R
$$

IAZ007>011-017>019-026>030-037>042-050>054-066-221600-
   NORTHEAST IOWA

CITY           SKY/WX    TMP DP  RH WIND       PRES   REMARKS
CEDAR RAPIDS   MOSUNNY   68  62  81 NW13      30.00R
CHARLES CITY * CLOUDY    64  61  88 NW9G17    30.04S
CLINTON *      CLOUDY    67  64  90 NW12      29.97R
DECORAH *      PTSUNNY   64  57  77 NW14G21   29.99S
DUBUQUE        MOSUNNY   68  60  75 NW14      29.97R
MONTICELLO *   PTSUNNY   70  63  78 NW7G16    29.98R
OELWEIN *      MOSUNNY   68  61  77 NW13G26   30.02R
WATERLOO       MOSUNNY   67  59  75 NW18      30.01R
$$

IAZ064-065-067-068-078-221600-
   EAST CENTRAL IOWA

CITY           SKY/WX    TMP DP  RH WIND       PRES   REMARKS
DAVENPORT        N/A     69  62  78 NW10      29.99R
IOWA CITY      CLOUDY    70  62  76 N12       30.01R
MT. PLEASANT * MOSUNNY   72  65  79 NW8G17    30.00R
MUSCATINE *    CLOUDY    70  64  83 NW14      29.99R
QUAD CITIES    CLOUDY    70  62  76 NW13      29.96R
$$

IAZ062-063-075>077-085>089-095>099-221600-
   SOUTHEAST IOWA

CITY           SKY/WX    TMP DP  RH WIND       PRES   REMARKS
BURLINGTON     MOSUNNY   72  67  84 NW9       29.99R
FAIRFIELD *    PTSUNNY   70  63  78 NW13G18   30.02R
FORT MADISON * CLOUDY    72  66  83 W9        30.01R
KEOKUK *       CLOUDY    72  66  83 NW10      30.00R
OSKALOOSA *      N/A     70  62  75 N12       30.05R
CENTERVILLE *    N/A     72  63  73 NW13      30.08R
OTTUMWA        SUNNY     72  63  73 NW14      30.03R
WASHINGTON *   PTSUNNY   68  64  88 NW14      30.02R
$$

ABBREVIATIONS USED IN REMARKS
   TC - TEMPERATURES IN CELSIUS
  WCI - WIND CHILL INDEX
   HX - HEAT INDEX
  VSB - VISIBILITY
$$





USA.gov is the U.S. government's official web portal to all federal, state and local government web resources and services.